Time,TemperatureF,DewpointF,PressureIn,WindDirection,WindDirectionDegrees,WindSpeedMPH,WindSpeedGustMPH,Humidity,HourlyPrecipIn,Conditions,Clouds,dailyrainin,SoftwareType,DateUTC
2013-05-22 00:01:00,61.2,55.0,29.78,SW,219,0.0,0.0,80,0.01,RA,,0.00,WeatherDisplay:10.37,2013-05-22 04:01:00,
2013-05-22 00:02:00,61.1,54.9,29.79,SW,219,0.0,0.0,80,0.01,RA,,0.00,WeatherDisplay:10.37,2013-05-22 04:02:00,
2013-05-22 00:03:00,61.1,54.9,29.78,SW,219,0.0,0.0,80,0.01,RA,,0.00,WeatherDisplay:10.37,2013-05-22 04:03:00,
2013-05-22 00:08:00,61.0,54.8,29.78,SW,219,0.0,0.0,80,0.01,RA,,0.00,WeatherDisplay:10.37,2013-05-22 04:08:00,
2013-05-22 00:13:00,60.8,54.6,29.78,SW,219,0.0,0.0,80,0.01,,,0.00,WeatherDisplay:10.37,2013-05-22 04:13:00,
2013-05-22 00:18:00,60.7,54.5,29.78,SW,219,0.0,0.0,80,0.01,,,0.00,WeatherDisplay:10.37,2013-05-22 04:18:00,
2013-05-22 00:23:00,60.5,54.3,29.78,SW,219,0.0,0.0,80,0.00,,,0.00,WeatherDisplay:10.37,2013-05-22 04:23:00,
2013-05-22 00:28:00,60.4,54.5,29.79,SW,219,0.0,0.0,81,0.00,,,0.00,WeatherDisplay:10.37,2013-05-22 04:28:00,
2013-05-22 00:33:00,60.3,54.1,29.79,SW,219,0.0,0.0,80,0.00,,,0.00,WeatherDisplay:10.37,2013-05-22 04:33:00,
2013-05-22 00:38:00,60.3,54.4,29.79,SW,219,0.0,0.0,81,0.00,,,0.00,WeatherDisplay:10.37,2013-05-22 04:38:00,
2013-05-22 00:43:00,60.3,54.4,29.79,SW,219,0.0,0.0,81,0.00,,,0.00,WeatherDisplay:10.37,2013-05-22 04:43:00,
2013-05-22 00:48:00,60.3,54.4,29.79,SW,219,0.0,0.0,81,0.00,,,0.00,WeatherDisplay:10.37,2013-05-22 04:48:00,
2013-05-22 00:53:00,60.3,54.4,29.79,SW,219,0.0,0.0,81,0.00,,,0.00,WeatherDisplay:10.37,2013-05-22 04:53:00,
2013-05-22 00:58:00,60.4,54.5,29.79,SW,219,0.0,0.0,81,0.00,,,0.00,WeatherDisplay:10.37,2013-05-22 04:58:00,
2013-05-22 01:03:00,60.4,54.5,29.79,SW,219,0.0,0.0,81,0.00,,,0.00,WeatherDisplay:10.37,2013-05-22 05:03:00,
2013-05-22 01:08:00,60.4,54.5,29.79,SW,219,0.0,0.0,81,0.00,,,0.00,WeatherDisplay:10.37,2013-05-22 05:08:00,
2013-05-22 01:13:00,60.4,54.5,29.79,SW,219,0.0,0.0,81,0.00,,,0.00,WeatherDisplay:10.37,2013-05-22 05:13:00,
2013-05-22 01:18:00,60.5,54.6,29.79,SW,219,0.0,0.0,81,0.00,,,0.00,WeatherDisplay:10.37,2013-05-22 05:18:00,
2013-05-22 01:23:00,60.5,54.6,29.79,SW,219,0.0,0.0,81,0.00,,,0.00,WeatherDisplay:10.37,2013-05-22 05:23:00,
2013-05-22 01:28:00,60.7,54.8,29.79,SW,219,0.0,0.0,81,0.00,,,0.00,WeatherDisplay:10.37,2013-05-22 05:28:00,
2013-05-22 01:33:00,60.6,54.7,29.79,SW,219,0.0,0.0,81,0.00,,,0.00,WeatherDisplay:10.37,2013-05-22 05:33:00,
2013-05-22 01:38:00,60.6,54.7,29.80,SW,219,0.0,0.0,81,0.00,,,0.00,WeatherDisplay:10.37,2013-05-22 05:38:00,
2013-05-22 01:43:00,60.7,54.8,29.79,SW,219,0.0,0.0,81,0.00,,,0.00,WeatherDisplay:10.37,2013-05-22 05:43:00,
2013-05-22 01:48:00,60.7,54.8,29.79,SW,219,0.0,0.0,81,0.00,,,0.00,WeatherDisplay:10.37,2013-05-22 05:48:00,
2013-05-22 01:53:00,60.7,54.8,29.79,SW,219,0.0,0.0,81,0.00,,,0.00,WeatherDisplay:10.37,2013-05-22 05:53:00,
2013-05-22 01:58:00,60.6,54.7,29.79,SW,219,0.0,0.0,81,0.00,,,0.00,WeatherDisplay:10.37,2013-05-22 05:58:00,
2013-05-22 02:03:00,60.7,54.8,29.78,SW,219,0.0,0.0,81,0.00,,,0.00,WeatherDisplay:10.37,2013-05-22 06:03:00,
2013-05-22 02:08:00,60.7,54.8,29.78,SW,219,0.0,0.0,81,0.00,,,0.00,WeatherDisplay:10.37,2013-05-22 06:08:00,
2013-05-22 02:13:00,60.7,54.8,29.78,SW,219,0.0,0.0,81,0.00,,,0.00,WeatherDisplay:10.37,2013-05-22 06:13:00,
2013-05-22 02:18:00,60.7,54.8,29.78,SW,219,0.0,0.0,81,0.00,,,0.00,WeatherDisplay:10.37,2013-05-22 06:18:00,
2013-05-22 02:23:00,60.7,54.8,29.78,SW,219,0.0,0.0,81,0.00,,,0.00,WeatherDisplay:10.37,2013-05-22 06:23:00,
2013-05-22 02:28:00,60.7,54.8,29.78,SW,219,0.0,0.0,81,0.00,,,0.00,WeatherDisplay:10.37,2013-05-22 06:28:00,
2013-05-22 02:33:00,60.7,54.8,29.78,SW,219,0.0,0.0,81,0.00,,,0.00,WeatherDisplay:10.37,2013-05-22 06:33:00,
2013-05-22 02:38:00,60.7,54.8,29.78,SW,219,0.0,0.0,81,0.00,,,0.00,WeatherDisplay:10.37,2013-05-22 06:38:00,
2013-05-22 02:43:00,60.7,54.8,29.78,SW,219,0.0,0.0,81,0.00,,,0.00,WeatherDisplay:10.37,2013-05-22 06:43:00,
2013-05-22 02:48:00,60.7,55.2,29.78,SW,219,0.0,0.0,82,0.00,,,0.00,WeatherDisplay:10.37,2013-05-22 06:48:00,
2013-05-22 02:53:00,60.7,55.2,29.78,SW,219,0.0,0.0,82,0.00,,,0.00,WeatherDisplay:10.37,2013-05-22 06:53:00,
2013-05-22 02:58:00,60.7,55.2,29.78,SW,219,0.0,0.0,82,0.00,,,0.00,WeatherDisplay:10.37,2013-05-22 06:58:00,
2013-05-22 03:03:00,60.8,55.3,29.78,SW,219,0.0,0.0,82,0.00,,,0.00,WeatherDisplay:10.37,2013-05-22 07:03:00,
2013-05-22 03:08:00,60.8,55.3,29.78,SW,219,0.0,0.0,82,0.00,,,0.00,WeatherDisplay:10.37,2013-05-22 07:08:00,
2013-05-22 03:13:00,60.8,55.3,29.77,SW,219,0.0,0.0,82,0.00,,,0.00,WeatherDisplay:10.37,2013-05-22 07:13:00,
2013-05-22 03:18:00,61.0,55.8,29.77,SW,219,0.0,0.0,83,0.00,,,0.00,WeatherDisplay:10.37,2013-05-22 07:18:00,
2013-05-22 03:23:00,61.1,55.9,29.77,SW,219,0.0,0.0,83,0.00,,,0.00,WeatherDisplay:10.37,2013-05-22 07:23:00,
2013-05-22 03:28:00,61.3,56.1,29.77,SW,219,0.0,0.0,83,0.00,,,0.00,WeatherDisplay:10.37,2013-05-22 07:28:00,
2013-05-22 03:33:00,61.7,56.8,29.77,SW,219,0.0,0.0,84,0.00,,,0.00,WeatherDisplay:10.37,2013-05-22 07:33:00,
2013-05-22 03:38:00,62.1,57.2,29.77,SW,219,0.0,0.0,84,0.00,,,0.00,WeatherDisplay:10.37,2013-05-22 07:38:00,
2013-05-22 03:43:00,62.4,57.8,29.77,SW,219,0.0,0.0,85,0.00,,,0.00,WeatherDisplay:10.37,2013-05-22 07:43:00,
2013-05-22 03:48:00,62.7,58.1,29.77,SW,219,0.0,0.0,85,0.00,,,0.00,WeatherDisplay:10.37,2013-05-22 07:48:00,
2013-05-22 03:53:00,63.0,58.4,29.77,South,189,0.0,0.0,85,0.00,,,0.00,WeatherDisplay:10.37,2013-05-22 07:53:00,
2013-05-22 03:58:00,63.0,58.4,29.77,South,190,0.0,0.0,85,0.00,,,0.00,WeatherDisplay:10.37,2013-05-22 07:58:00,
2013-05-22 04:03:00,62.9,58.3,29.77,South,186,0.0,0.0,85,0.00,,,0.00,WeatherDisplay:10.37,2013-05-22 08:03:00,
2013-05-22 04:08:00,62.9,58.3,29.77,South,186,0.0,0.0,85,0.00,,,0.00,WeatherDisplay:10.37,2013-05-22 08:08:00,
2013-05-22 04:13:00,63.1,58.5,29.77,NW,325,0.0,0.0,85,0.00,,,0.00,WeatherDisplay:10.37,2013-05-22 08:13:00,
2013-05-22 04:18:00,63.5,58.9,29.77,NW,312,0.0,0.0,85,0.00,,,0.00,WeatherDisplay:10.37,2013-05-22 08:18:00,
2013-05-22 04:23:00,63.5,58.9,29.77,ESE,121,1.1,1.1,85,0.00,,,0.00,WeatherDisplay:10.37,2013-05-22 08:23:00,
2013-05-22 04:28:00,63.4,58.8,29.77,ESE,120,0.0,0.0,85,0.00,,,0.00,WeatherDisplay:10.37,2013-05-22 08:28:00,
2013-05-22 04:33:00,63.3,58.4,29.77,ESE,120,0.0,0.0,84,0.00,,,0.00,WeatherDisplay:10.37,2013-05-22 08:33:00,
2013-05-22 04:38:00,63.4,58.5,29.77,ESE,120,0.0,0.0,84,0.00,,,0.00,WeatherDisplay:10.37,2013-05-22 08:38:00,
2013-05-22 04:43:00,63.3,58.4,29.77,ESE,121,0.0,0.0,84,0.00,,,0.00,WeatherDisplay:10.37,2013-05-22 08:43:00,
2013-05-22 04:48:00,63.2,57.9,29.77,ESE,120,0.0,0.0,83,0.00,,,0.00,WeatherDisplay:10.37,2013-05-22 08:48:00,
2013-05-22 04:53:00,63.1,57.9,29.77,ESE,120,0.0,0.0,83,0.00,,,0.00,WeatherDisplay:10.37,2013-05-22 08:53:00,
2013-05-22 04:58:00,63.0,57.8,29.77,ESE,121,0.0,0.0,83,0.00,,,0.00,WeatherDisplay:10.37,2013-05-22 08:58:00,
2013-05-22 05:03:00,62.9,57.7,29.77,ESE,120,0.0,0.0,83,0.00,,,0.00,WeatherDisplay:10.37,2013-05-22 09:03:00,
2013-05-22 05:08:00,62.6,57.0,29.76,ESE,121,0.0,0.0,82,0.00,,,0.00,WeatherDisplay:10.37,2013-05-22 09:08:00,
2013-05-22 05:13:00,62.5,56.9,29.77,ESE,121,0.0,0.0,82,0.00,,,0.00,WeatherDisplay:10.37,2013-05-22 09:13:00,
2013-05-22 05:18:00,62.4,56.8,29.77,ESE,121,0.0,0.0,82,0.00,,,0.00,WeatherDisplay:10.37,2013-05-22 09:18:00,
2013-05-22 05:23:00,62.1,56.5,29.77,ESE,120,0.0,0.0,82,0.00,,,0.00,WeatherDisplay:10.37,2013-05-22 09:23:00,
2013-05-22 05:28:00,62.0,56.4,29.77,ESE,121,0.0,0.0,82,0.00,,,0.00,WeatherDisplay:10.37,2013-05-22 09:28:00,
2013-05-22 05:33:00,62.0,56.4,29.77,ESE,120,0.0,0.0,82,0.00,,,0.00,WeatherDisplay:10.37,2013-05-22 09:33:00,
2013-05-22 05:38:00,62.3,57.1,29.77,West,276,0.0,0.0,83,0.00,,,0.00,WeatherDisplay:10.37,2013-05-22 09:38:00,
2013-05-22 05:43:00,62.2,57.0,29.77,SW,222,0.0,0.0,83,0.00,,,0.00,WeatherDisplay:10.37,2013-05-22 09:43:00,
2013-05-22 05:48:00,62.5,57.3,29.77,SW,222,0.0,0.0,83,0.00,,,0.00,WeatherDisplay:10.37,2013-05-22 09:48:00,
2013-05-22 05:53:00,62.7,57.8,29.77,WSW,238,0.0,0.0,84,0.00,,,0.00,WeatherDisplay:10.37,2013-05-22 09:53:00,
2013-05-22 05:58:00,62.8,57.9,29.76,SE,140,0.0,0.0,84,0.00,,,0.00,WeatherDisplay:10.37,2013-05-22 09:58:00,
2013-05-22 06:03:00,63.0,58.1,29.77,SE,139,0.0,0.0,84,0.00,,,0.00,WeatherDisplay:10.37,2013-05-22 10:03:00,
2013-05-22 06:08:00,63.1,58.5,29.76,SE,140,0.0,0.0,85,0.00,,,0.00,WeatherDisplay:10.37,2013-05-22 10:08:00,
2013-05-22 06:14:00,63.1,58.5,29.77,SE,140,0.0,0.0,85,0.00,,,0.00,WeatherDisplay:10.37,2013-05-22 10:14:00,
2013-05-22 06:19:00,63.2,58.6,29.77,SE,139,0.0,0.0,85,0.00,,,0.00,WeatherDisplay:10.37,2013-05-22 10:19:00,
2013-05-22 06:24:00,63.1,58.5,29.77,SE,140,0.0,0.0,85,0.00,,,0.00,WeatherDisplay:10.37,2013-05-22 10:24:00,
2013-05-22 06:29:00,63.1,58.2,29.77,SE,139,0.0,0.0,84,0.00,,,0.00,WeatherDisplay:10.37,2013-05-22 10:29:00,
2013-05-22 06:34:00,63.2,58.3,29.77,SE,139,0.0,0.0,84,0.00,,,0.00,WeatherDisplay:10.37,2013-05-22 10:34:00,
2013-05-22 06:39:00,63.4,58.5,29.77,SE,140,0.0,0.0,84,0.00,,,0.00,WeatherDisplay:10.37,2013-05-22 10:39:00,
2013-05-22 06:44:00,63.5,58.6,29.77,SE,140,0.0,0.0,84,0.00,,,0.00,WeatherDisplay:10.37,2013-05-22 10:44:00,
2013-05-22 06:49:00,63.6,58.7,29.78,SE,139,0.0,0.0,84,0.00,,,0.00,WeatherDisplay:10.37,2013-05-22 10:49:00,
2013-05-22 06:54:00,63.7,58.8,29.77,SE,139,0.0,0.0,84,0.00,,,0.00,WeatherDisplay:10.37,2013-05-22 10:54:00,
2013-05-22 06:59:00,63.7,58.8,29.77,SE,140,0.0,0.0,84,0.00,,,0.00,WeatherDisplay:10.37,2013-05-22 10:59:00,
2013-05-22 07:04:00,63.8,58.9,29.77,SE,140,0.0,0.0,84,0.00,,,0.00,WeatherDisplay:10.37,2013-05-22 11:04:00,
2013-05-22 07:09:00,63.9,59.0,29.78,SE,140,0.0,0.0,84,0.00,,,0.00,WeatherDisplay:10.37,2013-05-22 11:09:00,
2013-05-22 07:14:00,64.0,59.1,29.78,SE,140,0.0,0.0,84,0.00,,,0.00,WeatherDisplay:10.37,2013-05-22 11:14:00,
2013-05-22 07:19:00,64.1,59.2,29.78,SE,140,0.0,0.0,84,0.00,,,0.00,WeatherDisplay:10.37,2013-05-22 11:19:00,
2013-05-22 07:24:00,64.2,59.3,29.78,SE,140,0.0,0.0,84,0.00,,,0.00,WeatherDisplay:10.37,2013-05-22 11:24:00,
2013-05-22 07:29:00,64.3,59.4,29.78,SSE,148,0.0,0.0,84,0.00,,,0.00,WeatherDisplay:10.37,2013-05-22 11:29:00,
2013-05-22 07:34:00,64.5,59.6,29.78,SSE,148,0.0,0.0,84,0.00,,,0.00,WeatherDisplay:10.37,2013-05-22 11:34:00,
2013-05-22 07:39:00,64.6,59.7,29.78,SSE,148,0.0,0.0,84,0.00,,,0.00,WeatherDisplay:10.37,2013-05-22 11:39:00,
2013-05-22 07:44:00,64.7,59.8,29.78,SSE,148,0.0,0.0,84,0.00,,,0.00,WeatherDisplay:10.37,2013-05-22 11:44:00,
2013-05-22 07:49:00,64.8,59.9,29.78,SSE,148,0.0,0.0,84,0.00,,,0.00,WeatherDisplay:10.37,2013-05-22 11:49:00,
2013-05-22 07:54:00,64.7,59.4,29.78,SSE,148,0.0,0.0,83,0.00,,,0.00,WeatherDisplay:10.37,2013-05-22 11:54:00,
2013-05-22 07:59:00,64.9,59.6,29.78,SSE,148,0.0,0.0,83,0.00,,,0.00,WeatherDisplay:10.37,2013-05-22 11:59:00,
2013-05-22 08:04:00,65.0,59.7,29.78,SSE,148,0.0,0.0,83,0.00,,,0.00,WeatherDisplay:10.37,2013-05-22 12:04:00,
2013-05-22 08:09:00,65.2,59.9,29.78,SSE,148,0.0,0.0,83,0.00,,,0.00,WeatherDisplay:10.37,2013-05-22 12:09:00,
2013-05-22 08:14:00,65.6,60.6,29.78,SSE,148,0.0,0.0,84,0.00,,,0.00,WeatherDisplay:10.37,2013-05-22 12:14:00,
2013-05-22 08:19:00,66.1,61.1,29.78,SSE,148,0.0,0.0,84,0.00,,,0.00,WeatherDisplay:10.37,2013-05-22 12:19:00,
2013-05-22 08:24:00,66.6,61.6,29.79,SSE,148,0.0,0.0,84,0.00,,,0.00,WeatherDisplay:10.37,2013-05-22 12:24:00,
2013-05-22 08:29:00,66.8,61.8,29.78,ESE,105,2.3,2.3,84,0.00,,,0.00,WeatherDisplay:10.37,2013-05-22 12:29:00,
2013-05-22 08:34:00,67.2,62.2,29.79,SW,219,0.0,0.0,84,0.00,,,0.00,WeatherDisplay:10.37,2013-05-22 12:34:00,
2013-05-22 08:39:00,67.4,62.4,29.79,SSW,193,0.0,0.0,84,0.00,,,0.00,WeatherDisplay:10.37,2013-05-22 12:39:00,
2013-05-22 08:44:00,67.3,62.0,29.79,SE,137,0.0,0.0,83,0.00,,,0.00,WeatherDisplay:10.37,2013-05-22 12:44:00,
2013-05-22 08:49:00,67.6,62.3,29.79,SE,129,0.0,0.0,83,0.00,,,0.00,WeatherDisplay:10.37,2013-05-22 12:49:00,
2013-05-22 08:54:00,67.8,62.1,29.79,WSW,257,0.0,0.0,82,0.00,,,0.00,WeatherDisplay:10.37,2013-05-22 12:54:00,
2013-05-22 08:59:00,67.8,62.1,29.79,SSE,151,0.0,0.0,82,0.00,,,0.00,WeatherDisplay:10.37,2013-05-22 12:59:00,
2013-05-22 09:04:00,67.7,61.7,29.79,WSW,241,0.0,0.0,81,0.00,,,0.00,WeatherDisplay:10.37,2013-05-22 13:04:00,
2013-05-22 09:09:00,67.7,61.7,29.79,SSW,204,0.0,0.0,81,0.00,,,0.00,WeatherDisplay:10.37,2013-05-22 13:09:00,
2013-05-22 09:14:00,67.5,61.1,29.79,SSE,160,0.0,0.0,80,0.00,,,0.00,WeatherDisplay:10.37,2013-05-22 13:14:00,
2013-05-22 09:19:00,67.5,61.1,29.79,ESE,122,0.0,0.0,80,0.00,,,0.00,WeatherDisplay:10.37,2013-05-22 13:19:00,
2013-05-22 09:24:00,67.5,61.1,29.79,SE,135,0.0,0.0,80,0.00,,,0.00,WeatherDisplay:10.37,2013-05-22 13:24:00,
2013-05-22 09:29:00,67.5,61.1,29.79,SE,135,0.0,0.0,80,0.00,,,0.00,WeatherDisplay:10.37,2013-05-22 13:29:00,
2013-05-22 09:34:00,67.5,61.1,29.79,SE,135,0.0,0.0,80,0.00,,,0.00,WeatherDisplay:10.37,2013-05-22 13:34:00,
2013-05-22 09:39:00,67.6,61.2,29.79,SE,135,0.0,0.0,80,0.00,,,0.00,WeatherDisplay:10.37,2013-05-22 13:39:00,
2013-05-22 09:44:00,67.8,61.8,29.79,SE,136,0.0,0.0,81,0.00,,,0.00,WeatherDisplay:10.37,2013-05-22 13:44:00,
2013-05-22 09:49:00,67.9,61.9,29.79,SE,136,0.0,0.0,81,0.00,,,0.00,WeatherDisplay:10.37,2013-05-22 13:49:00,
2013-05-22 09:54:00,67.9,61.9,29.79,SE,136,0.0,0.0,81,0.00,,,0.00,WeatherDisplay:10.37,2013-05-22 13:54:00,
2013-05-22 09:59:00,68.0,61.6,29.79,SE,136,0.0,0.0,80,0.00,,,0.00,WeatherDisplay:10.37,2013-05-22 13:59:00,
2013-05-22 10:04:00,68.3,62.2,29.79,SE,136,0.0,0.0,81,0.00,,,0.00,WeatherDisplay:10.37,2013-05-22 14:04:00,
2013-05-22 10:09:00,68.5,62.4,29.79,SE,136,0.0,0.0,81,0.00,,,0.00,WeatherDisplay:10.37,2013-05-22 14:09:00,
2013-05-22 10:14:00,68.6,62.5,29.79,SE,135,0.0,0.0,81,0.00,,,0.00,WeatherDisplay:10.37,2013-05-22 14:14:00,
2013-05-22 10:19:00,68.8,62.7,29.79,South,172,0.0,0.0,81,0.00,,,0.00,WeatherDisplay:10.37,2013-05-22 14:19:00,
2013-05-22 10:24:00,68.9,62.5,29.79,SE,124,1.1,1.1,80,0.00,,,0.00,WeatherDisplay:10.37,2013-05-22 14:24:00,
2013-05-22 10:29:00,68.9,62.5,29.79,SSE,148,1.1,1.1,80,0.00,,,0.00,WeatherDisplay:10.37,2013-05-22 14:29:00,
2013-05-22 10:34:00,69.0,62.6,29.79,East,91,1.1,0.0,80,0.00,,,0.00,WeatherDisplay:10.37,2013-05-22 14:34:00,
2013-05-22 10:39:00,69.3,62.9,29.79,South,180,0.0,0.0,80,0.00,,,0.00,WeatherDisplay:10.37,2013-05-22 14:39:00,
2013-05-22 10:44:00,69.8,63.3,29.79,SW,233,0.0,0.0,80,0.00,,,0.00,WeatherDisplay:10.37,2013-05-22 14:44:00,
2013-05-22 10:49:00,69.9,63.4,29.78,SSW,200,0.0,0.0,80,0.00,,,0.00,WeatherDisplay:10.37,2013-05-22 14:49:00,
2013-05-22 14:54:00,87.9,70.8,29.72,East,101,8.0,8.0,57,0.00,CLR,,0.00,WeatherDisplay:10.37,2013-05-22 18:54:00,
2013-05-22 14:59:00,87.9,70.8,29.72,SW,215,2.3,0.0,57,0.00,,,0.00,WeatherDisplay:10.37,2013-05-22 18:59:00,
2013-05-22 15:04:00,87.2,71.1,29.72,SW,222,2.0,2.0,59,0.00,,,0.00,WeatherDisplay:10.37,2013-05-22 19:04:00,
2013-05-22 15:09:00,86.0,70.5,29.72,SSW,203,3.5,3.5,60,0.00,,,0.00,WeatherDisplay:10.37,2013-05-22 19:09:00,
2013-05-22 15:14:00,85.1,71.5,29.72,SW,236,1.1,1.2,64,0.00,,,0.00,WeatherDisplay:10.37,2013-05-22 19:14:00,
2013-05-22 15:19:00,84.6,71.1,29.71,SW,226,2.3,2.3,64,0.00,,,0.00,WeatherDisplay:10.37,2013-05-22 19:19:00,
2013-05-22 15:24:00,84.7,72.1,29.71,SSE,150,2.3,2.3,66,0.00,,,0.00,WeatherDisplay:10.37,2013-05-22 19:24:00,
2013-05-22 15:29:00,85.2,71.6,29.72,SSW,210,1.1,1.1,64,0.00,,,0.00,WeatherDisplay:10.37,2013-05-22 19:29:00,
2013-05-22 15:34:00,84.7,71.2,29.72,NNW,333,3.5,0.0,64,0.00,,,0.00,WeatherDisplay:10.37,2013-05-22 19:34:00,
2013-05-22 15:39:00,83.0,70.0,29.73,NE,39,4.6,4.6,65,0.00,,,0.00,WeatherDisplay:10.37,2013-05-22 19:39:00,
2013-05-22 15:44:00,80.6,69.1,29.72,NE,41,3.5,3.5,68,0.00,,,0.00,WeatherDisplay:10.37,2013-05-22 19:44:00,
2013-05-22 15:49:00,79.3,69.1,29.72,NNE,25,2.3,2.3,71,0.00,,,0.00,WeatherDisplay:10.37,2013-05-22 19:49:00,
2013-05-22 15:54:00,78.7,68.1,29.72,SSW,194,4.6,4.6,70,0.00,,,0.00,WeatherDisplay:10.37,2013-05-22 19:54:00,
2013-05-22 15:59:00,78.6,68.8,29.72,NNE,32,4.0,4.0,72,0.00,,,0.00,WeatherDisplay:10.37,2013-05-22 19:59:00,
2013-05-22 16:04:00,78.4,67.8,29.72,NE,41,3.5,3.5,70,0.00,,,0.00,WeatherDisplay:10.37,2013-05-22 20:04:00,
2013-05-22 16:09:00,78.4,68.2,29.72,NNE,30,2.3,2.3,71,0.00,,,0.00,WeatherDisplay:10.37,2013-05-22 20:09:00,
2013-05-22 16:14:00,78.0,67.8,29.72,ESE,104,1.1,1.1,71,0.00,,,0.00,WeatherDisplay:10.37,2013-05-22 20:14:00,
2013-05-22 16:19:00,77.9,69.3,29.71,ENE,77,2.3,2.3,75,0.00,,,0.00,WeatherDisplay:10.37,2013-05-22 20:19:00,
2013-05-22 16:24:00,77.9,68.9,29.71,East,100,1.1,0.0,74,0.00,,,0.00,WeatherDisplay:10.37,2013-05-22 20:24:00,
2013-05-22 16:29:00,78.0,69.0,29.70,WNW,284,1.1,1.1,74,0.00,,,0.00,WeatherDisplay:10.37,2013-05-22 20:29:00,
2013-05-22 16:34:00,78.0,69.0,29.70,NNE,30,2.0,2.0,74,0.00,,,0.00,WeatherDisplay:10.37,2013-05-22 20:34:00,
2013-05-22 16:39:00,77.8,69.6,29.70,East,84,3.5,0.0,76,0.00,,,0.00,WeatherDisplay:10.37,2013-05-22 20:39:00,
2013-05-22 16:44:00,77.9,69.7,29.70,NE,45,0.0,0.0,76,0.00,,,0.00,WeatherDisplay:10.37,2013-05-22 20:44:00,
2013-05-22 16:49:00,78.2,69.6,29.69,ENE,77,5.8,5.8,75,0.00,,,0.00,WeatherDisplay:10.37,2013-05-22 20:49:00,
2013-05-22 16:54:00,78.6,70.4,29.69,WNW,294,3.5,3.5,76,0.00,,,0.00,WeatherDisplay:10.37,2013-05-22 20:54:00,
2013-05-22 16:59:00,79.2,70.2,29.69,SE,127,3.5,3.5,74,0.00,,,0.00,WeatherDisplay:10.37,2013-05-22 20:59:00,
2013-05-22 17:04:00,79.0,69.6,29.69,NW,307,3.5,3.5,73,0.00,,,0.00,WeatherDisplay:10.37,2013-05-22 21:04:00,
2013-05-22 17:09:00,78.6,69.6,29.68,ENE,64,3.5,3.5,74,0.00,,,0.00,WeatherDisplay:10.37,2013-05-22 21:09:00,
2013-05-22 17:14:00,78.3,70.5,29.68,West,277,0.0,0.0,77,0.00,,,0.00,WeatherDisplay:10.37,2013-05-22 21:14:00,
2013-05-22 17:19:00,77.8,70.0,29.67,NW,309,2.0,2.0,77,0.00,,,0.00,WeatherDisplay:10.37,2013-05-22 21:19:00,
2013-05-22 17:32:00,70.1,63.6,29.68,NE,49,18.4,18.4,80,0.27,RA,,0.28,WeatherDisplay:10.37,2013-05-22 21:32:00,
2013-05-22 17:37:00,69.0,64.6,29.67,SW,219,2.3,2.3,86,0.30,RA,,0.30,WeatherDisplay:10.37,2013-05-22 21:37:00,
2013-05-22 17:42:00,69.0,64.3,29.68,SSW,193,1.1,1.1,85,0.30,RA,,0.31,WeatherDisplay:10.37,2013-05-22 21:42:00,
2013-05-22 17:47:00,70.1,64.7,29.68,SSW,210,0.0,0.0,83,0.32,RA,,0.32,WeatherDisplay:10.37,2013-05-22 21:47:00,
2013-05-22 17:52:00,70.6,65.9,29.68,West,264,2.3,2.3,85,0.32,RA,,0.32,WeatherDisplay:10.37,2013-05-22 21:52:00,
2013-05-22 17:57:00,71.1,66.0,29.67,West,262,1.1,0.0,84,0.32,,,0.32,WeatherDisplay:10.37,2013-05-22 21:57:00,
2013-05-22 18:02:00,71.4,66.3,29.67,WSW,257,0.0,0.0,84,0.32,,,0.32,WeatherDisplay:10.37,2013-05-22 22:02:00,
2013-05-22 18:07:00,71.8,67.0,29.67,West,264,1.1,1.1,85,0.32,,,0.32,WeatherDisplay:10.37,2013-05-22 22:07:00,
2013-05-22 18:12:00,71.8,67.4,29.66,West,262,0.0,0.0,86,0.32,,,0.32,WeatherDisplay:10.37,2013-05-22 22:12:00,
2013-05-22 18:17:00,72.2,67.4,29.66,West,262,0.0,0.0,85,0.32,,,0.32,WeatherDisplay:10.37,2013-05-22 22:17:00,
2013-05-22 18:22:00,72.7,67.9,29.66,West,262,0.0,0.0,85,0.32,,,0.32,WeatherDisplay:10.37,2013-05-22 22:22:00,
2013-05-22 18:27:00,73.1,68.7,29.66,West,262,0.0,0.0,86,0.22,,,0.32,WeatherDisplay:10.37,2013-05-22 22:27:00,
2013-05-22 18:32:00,73.2,69.1,29.66,West,262,0.0,0.0,87,0.05,,,0.32,WeatherDisplay:10.37,2013-05-22 22:32:00,
2013-05-22 18:37:00,73.1,68.7,29.66,West,262,0.0,0.0,86,0.02,,,0.32,WeatherDisplay:10.37,2013-05-22 22:37:00,
2013-05-22 18:42:00,73.2,68.8,29.66,West,262,0.0,0.0,86,0.02,,,0.32,WeatherDisplay:10.37,2013-05-22 22:42:00,
2013-05-22 18:47:00,73.6,68.8,29.66,West,262,0.0,0.0,85,0.00,,,0.32,WeatherDisplay:10.37,2013-05-22 22:47:00,
2013-05-22 18:52:00,73.6,69.2,29.66,West,262,0.0,0.0,86,0.00,,,0.32,WeatherDisplay:10.37,2013-05-22 22:52:00,
2013-05-22 18:57:00,73.4,69.3,29.66,SE,135,0.0,0.0,87,0.00,,,0.32,WeatherDisplay:10.37,2013-05-22 22:57:00,
2013-05-22 19:02:00,73.2,69.1,29.65,WSW,255,0.0,0.0,87,0.00,,,0.32,WeatherDisplay:10.37,2013-05-22 23:02:00,
2013-05-22 19:07:00,72.8,68.7,29.65,ESE,120,0.0,0.0,87,0.00,,,0.32,WeatherDisplay:10.37,2013-05-22 23:07:00,
2013-05-22 19:12:00,72.5,68.4,29.65,ESE,120,0.0,0.0,87,0.00,,,0.32,WeatherDisplay:10.37,2013-05-22 23:12:00,
2013-05-22 19:17:00,72.1,68.0,29.65,ESE,120,0.0,0.0,87,0.00,,,0.32,WeatherDisplay:10.37,2013-05-22 23:17:00,
2013-05-22 19:22:00,71.8,67.7,29.65,ESE,120,0.0,0.0,87,0.00,,,0.32,WeatherDisplay:10.37,2013-05-22 23:22:00,
2013-05-22 19:27:00,71.4,67.3,29.65,ESE,120,0.0,0.0,87,0.00,,,0.32,WeatherDisplay:10.37,2013-05-22 23:27:00,
2013-05-22 19:32:00,71.1,66.7,29.64,ESE,120,0.0,0.0,86,0.00,,,0.32,WeatherDisplay:10.37,2013-05-22 23:32:00,
2013-05-22 19:37:00,70.9,66.5,29.64,ESE,120,0.0,0.0,86,0.00,,,0.32,WeatherDisplay:10.37,2013-05-22 23:37:00,
2013-05-22 19:42:00,70.7,66.0,29.64,ESE,120,0.0,0.0,85,0.00,,,0.32,WeatherDisplay:10.37,2013-05-22 23:42:00,
2013-05-22 19:47:00,70.6,65.9,29.64,ESE,120,0.0,0.0,85,0.00,,,0.32,WeatherDisplay:10.37,2013-05-22 23:47:00,
2013-05-22 19:53:00,70.4,65.3,29.64,ESE,120,0.0,0.0,84,0.00,,,0.32,WeatherDisplay:10.37,2013-05-22 23:53:00,
2013-05-22 19:58:00,70.1,64.7,29.64,ESE,105,2.3,0.0,83,0.00,,,0.32,WeatherDisplay:10.37,2013-05-22 23:58:00,
2013-05-22 20:03:00,69.9,64.5,29.64,WSW,250,3.5,3.5,83,0.00,,,0.32,WeatherDisplay:10.37,2013-05-23 00:03:00,
2013-05-22 20:08:00,69.7,64.0,29.64,West,266,3.5,3.5,82,0.00,,,0.32,WeatherDisplay:10.37,2013-05-23 00:08:00,
2013-05-22 20:13:00,69.9,63.8,29.64,ESE,120,2.0,2.0,81,0.00,,,0.32,WeatherDisplay:10.37,2013-05-23 00:13:00,
2013-05-22 20:18:00,69.8,64.1,29.64,ESE,120,0.0,0.0,82,0.00,,,0.32,WeatherDisplay:10.37,2013-05-23 00:18:00,
2013-05-22 20:23:00,69.7,64.0,29.63,ESE,120,0.0,0.0,82,0.00,,,0.32,WeatherDisplay:10.37,2013-05-23 00:23:00,
2013-05-22 20:28:00,69.6,63.5,29.63,SSE,156,0.0,0.0,81,0.00,,,0.32,WeatherDisplay:10.37,2013-05-23 00:28:00,
2013-05-22 20:33:00,69.5,63.4,29.64,SSE,148,0.0,0.0,81,0.00,,,0.32,WeatherDisplay:10.37,2013-05-23 00:33:00,
2013-05-22 20:38:00,69.4,63.3,29.64,South,180,0.0,0.0,81,0.00,,,0.32,WeatherDisplay:10.37,2013-05-23 00:38:00,
2013-05-22 20:43:00,69.3,62.9,29.64,East,91,3.5,3.5,80,0.00,,,0.32,WeatherDisplay:10.37,2013-05-23 00:43:00,
2013-05-22 20:48:00,69.6,62.8,29.64,ESE,108,1.1,1.1,79,0.00,,,0.32,WeatherDisplay:10.37,2013-05-23 00:48:00,
2013-05-22 20:53:00,69.7,63.3,29.64,ENE,61,1.1,0.0,80,0.00,,,0.32,WeatherDisplay:10.37,2013-05-23 00:53:00,
2013-05-22 20:58:00,69.7,63.3,29.64,ENE,73,0.0,0.0,80,0.00,,,0.32,WeatherDisplay:10.37,2013-05-23 00:58:00,
2013-05-22 21:03:00,69.6,63.5,29.64,ESE,102,2.0,2.0,81,0.00,,,0.32,WeatherDisplay:10.37,2013-05-23 01:03:00,
2013-05-22 21:08:00,69.4,64.4,29.64,SSW,207,1.1,0.0,84,0.00,,,0.32,WeatherDisplay:10.37,2013-05-23 01:08:00,
2013-05-22 21:13:00,69.4,65.4,29.65,West,270,3.5,3.5,87,0.00,,,0.32,WeatherDisplay:10.37,2013-05-23 01:13:00,
2013-05-22 21:18:00,69.7,65.7,29.65,ESE,103,0.0,0.0,87,0.00,,,0.32,WeatherDisplay:10.37,2013-05-23 01:18:00,
2013-05-22 21:23:00,69.7,65.0,29.66,SW,225,3.5,3.5,85,0.00,,,0.32,WeatherDisplay:10.37,2013-05-23 01:23:00,
2013-05-22 21:28:00,70.6,64.1,29.66,West,274,2.3,2.3,80,0.00,,,0.32,WeatherDisplay:10.37,2013-05-23 01:28:00,
2013-05-22 21:33:00,71.2,62.5,29.68,NE,40,2.3,2.3,74,0.00,,,0.32,WeatherDisplay:10.37,2013-05-23 01:33:00,
2013-05-22 21:38:00,72.0,63.3,29.68,WSW,246,2.0,2.0,74,0.00,,,0.32,WeatherDisplay:10.37,2013-05-23 01:38:00,
2013-05-22 21:43:00,72.6,65.0,29.69,WSW,250,1.1,0.0,77,0.00,,,0.32,WeatherDisplay:10.37,2013-05-23 01:43:00,
2013-05-22 21:48:00,72.5,65.2,29.69,NW,323,0.0,0.5,78,0.00,,,0.32,WeatherDisplay:10.37,2013-05-23 01:48:00,
2013-05-22 21:53:00,72.8,66.3,29.69,SE,141,0.0,0.0,80,0.00,,,0.32,WeatherDisplay:10.37,2013-05-23 01:53:00,
2013-05-22 21:58:00,72.5,66.3,29.69,SE,141,0.0,0.0,81,0.00,,,0.32,WeatherDisplay:10.37,2013-05-23 01:58:00,
2013-05-22 22:03:00,72.2,66.4,29.69,SE,141,0.0,0.0,82,0.00,,,0.32,WeatherDisplay:10.37,2013-05-23 02:03:00,
2013-05-22 22:08:00,71.8,66.7,29.69,SE,141,0.0,0.0,84,0.00,,,0.32,WeatherDisplay:10.37,2013-05-23 02:08:00,
2013-05-22 22:13:00,71.3,66.6,29.69,SE,141,0.0,0.0,85,0.00,,,0.32,WeatherDisplay:10.37,2013-05-23 02:13:00,
2013-05-22 22:18:00,70.7,66.3,29.69,ESE,105,0.0,0.0,86,0.00,,,0.32,WeatherDisplay:10.37,2013-05-23 02:18:00,
2013-05-22 22:24:00,70.3,66.2,29.69,SW,233,0.0,0.4,87,0.00,,,0.32,WeatherDisplay:10.37,2013-05-23 02:24:00,
2013-05-22 22:29:00,70.2,64.8,29.69,SW,235,3.5,3.5,83,0.00,,,0.32,WeatherDisplay:10.37,2013-05-23 02:29:00,
2013-05-22 22:34:00,71.0,65.9,29.70,SSE,168,2.3,2.3,84,0.00,,,0.32,WeatherDisplay:10.37,2013-05-23 02:34:00,
2013-05-22 22:39:00,71.8,65.3,29.70,SSW,208,3.5,3.5,80,0.00,,,0.32,WeatherDisplay:10.37,2013-05-23 02:39:00,
2013-05-22 22:44:00,72.5,66.0,29.70,SSE,148,0.0,0.0,80,0.00,,,0.32,WeatherDisplay:10.37,2013-05-23 02:44:00,
2013-05-22 22:49:00,72.5,65.2,29.70,SSE,148,0.0,0.0,78,0.00,,,0.32,WeatherDisplay:10.37,2013-05-23 02:49:00,
2013-05-22 22:54:00,72.3,64.7,29.70,South,179,0.0,0.0,77,0.00,,,0.32,WeatherDisplay:10.37,2013-05-23 02:54:00,
2013-05-22 22:59:00,72.3,65.1,29.70,West,264,1.0,1.0,78,0.00,,,0.32,WeatherDisplay:10.37,2013-05-23 02:59:00,
2013-05-22 23:04:00,72.4,64.4,29.70,West,265,1.1,0.0,76,0.00,,,0.32,WeatherDisplay:10.37,2013-05-23 03:04:00,
2013-05-22 23:09:00,72.4,64.4,29.70,North,1,0.0,0.0,76,0.00,,,0.32,WeatherDisplay:10.37,2013-05-23 03:09:00,
2013-05-22 23:14:00,72.5,64.5,29.70,West,267,1.1,0.0,76,0.00,,,0.32,WeatherDisplay:10.37,2013-05-23 03:14:00,
2013-05-22 23:19:00,72.6,64.2,29.70,West,267,0.0,0.0,75,0.00,,,0.32,WeatherDisplay:10.37,2013-05-23 03:19:00,
2013-05-22 23:24:00,72.6,64.2,29.70,West,267,0.0,0.0,75,0.00,,,0.32,WeatherDisplay:10.37,2013-05-23 03:24:00,
2013-05-22 23:29:00,72.5,64.1,29.70,West,267,1.1,0.0,75,0.00,,,0.32,WeatherDisplay:10.37,2013-05-23 03:29:00,
2013-05-22 23:34:00,72.4,64.4,29.70,West,266,0.0,0.0,76,0.00,,,0.32,WeatherDisplay:10.37,2013-05-23 03:34:00,
2013-05-22 23:39:00,72.2,63.8,29.70,West,266,0.0,0.0,75,0.00,,,0.32,WeatherDisplay:10.37,2013-05-23 03:39:00,
2013-05-22 23:44:00,72.0,63.6,29.70,West,267,0.0,0.0,75,0.00,,,0.32,WeatherDisplay:10.37,2013-05-23 03:44:00,
2013-05-22 23:49:00,71.8,64.2,29.70,SSW,197,1.1,1.1,77,0.00,,,0.32,WeatherDisplay:10.37,2013-05-23 03:49:00,
2013-05-22 23:54:00,71.4,64.2,29.70,East,85,1.1,1.1,78,0.00,,,0.32,WeatherDisplay:10.37,2013-05-23 03:54:00,
2013-05-22 23:59:00,71.0,64.2,29.71,SSE,153,0.0,0.0,79,0.00,,,0.32,WeatherDisplay:10.37,2013-05-23 03:59:00,